EW1931 Weather Reports


time (UTC)temp
F
wind
direction
speed
knots
gust
knots
rain 1hr
in
rain 24hr
in
rain mn
in
humidity
%
barometer
mb
20260903114552 48 205 7.0 8.7 0.00 0.04 0.04 75 1004.1
20260903113051 47 185 5.2 10.4 0.00 0.04 0.04 77 1004.1
20260903111533 46 156 7.0 8.7 0.00 0.04 0.04 78 1004.1
20260903110030 46 169 5.2 7.8 0.00 0.04 0.04 78 1004.0
20260903104508 47 226 4.3 6.1 0.00 0.04 0.04 75 1003.9
20260903103012 49 157 6.1 9.6 0.00 0.04 0.04 72 1004.2
20260903101553 49 230 4.3 5.2 0.00 0.04 0.04 73 1003.9
20260903100050 48 230 3.5 4.3 0.00 0.04 0.04 73 1003.9
20260903094536 48 230 1.7 2.6 0.00 0.04 0.04 74 1003.8
20260903093040 48 230 1.7 3.5 0.00 0.04 0.04 73 1003.9
20260903091512 50 230 2.6 3.5 0.00 0.04 0.04 71 1003.8
20260903090025 50 230 2.6 3.5 0.00 0.04 0.04 71 1003.9
20260903084554 49 230 3.5 4.3 0.00 0.04 0.04 75 1003.8
20260903083056 48 278 2.6 6.1 0.00 0.04 0.04 76 1003.6
20260903081539 48 281 4.3 6.1 0.00 0.04 0.04 77 1003.5
20260903080034 47 265 3.5 5.2 0.00 0.04 0.04 78 1003.6
20260903074513 48 267 3.5 5.2 0.00 0.04 0.04 76 1003.5
20260903073023 49 213 5.2 6.1 0.00 0.04 0.04 74 1003.5
20260903071559 50 202 6.1 7.0 0.00 0.04 0.04 73 1003.5
20260903070050 50 180 7.8 8.7 0.00 0.04 0.04 74 1003.7
20260903064540 50 177 8.7 12.2 0.00 0.04 0.04 74 1003.5
20260903063032 50 184 8.7 11.3 0.00 0.04 0.04 74 1003.4
20260903061516 51 176 9.6 10.4 0.00 0.04 0.04 72 1003.2
20260903060013 50 196 7.0 8.7 0.00 0.04 0.04 75 1003.6
20260903054601 50 204 6.1 7.0 0.00 0.04 0.04 76 1003.9
20260903053056 51 207 6.1 8.7 0.00 0.04 0.04 75 1004.2
20260903051554 50 216 5.2 7.0 0.00 0.04 0.04 76 1004.1
20260903050050 52 179 5.2 6.1 0.00 0.04 0.04 73 1003.9
20260903044554 53 13 5.2 7.0 0.00 0.04 0.04 72 1004.0
20260903043049 52 13 4.3 7.0 0.00 0.04 0.04 75 1004.0
20260903041547 53 13 5.2 7.8 0.00 0.04 0.04 74 1003.8
20260903040044 54 13 5.2 7.8 0.00 0.04 0.04 74 1004.0
20260903034530 54 13 7.0 8.7 0.00 0.04 0.04 74 1004.0
20260903033036 55 13 9.6 11.3 0.00 0.04 0.04 73 1003.9
20260903031634 56 14 8.7 13.0 0.00 0.04 0.04 72 1003.8
20260903030101 57 14 12.2 17.4 0.00 0.04 0.04 70 1003.6
20260903024540 57 136 14.8 20.0 0.00 0.04 0.04 69 1002.8
20260903023038 59 244 12.2 18.2 0.00 0.04 0.04 66 1002.6
20260903021518 61 233 19.1 26.1 0.00 0.04 0.04 61 1002.5
20260903020017 59 218 13.0 19.1 0.00 0.04 0.04 63 1002.3
20260903014601 61 204 13.9 18.2 0.00 0.04 0.04 61 1002.8
20260903013100 63 194 12.2 17.4 0.00 0.04 0.04 57 1002.7
20260903011542 64 174 6.1 13.9 0.00 0.04 0.04 60 1003.2
20260903010045 64 181 4.3 7.0 0.00 0.04 0.04 59 1003.3
20260903004538 63 159 5.2 11.3 0.00 0.04 0.04 64 1003.5
20260903003025 62 45 9.6 15.6 0.00 0.04 0.04 60 1002.7
20260903001505 62 29 12.2 16.5 0.00 0.04 0.04 65 1002.4
20260903000005 61 16 13.9 23.5 0.01 0.04 0.04 64 1002.9
20260902234558 60 261 16.5 27.8 0.03 0.04 0.04 65 1003.3
20260902233047 60 247 19.1 26.1 0.04 0.04 0.04 68 1003.6
20260902231527 59 231 23.5 30.4 0.04 0.04 0.04 72 1003.4
20260902230024 59 235 30.4 48.7 0.03 0.03 0.03 69 1002.9
20260902224509 76 204 13.9 26.1 0.01 0.01 0.01 40 1000.6
20260902223009 82 176 10.4 15.6 0.00 0.00 0.00 27 999.4
20260902221507 83 155 9.6 13.9 0.00 0.00 0.00 26 999.1
20260902220008 83 165 8.7 12.2 0.00 0.00 0.00 26 999.2
20260902214506 84 215 13.0 16.5 0.00 0.00 0.00 25 999.3
20260902213014 86 150 12.2 22.6 0.00 0.00 0.00 24 999.1
20260902211505 86 167 8.7 18.2 0.00 0.00 0.00 24 999.4
20260902210100 85 157 13.0 20.0 0.00 0.00 0.00 26 999.6
20260902204542 83 124 4.3 13.0 0.00 0.00 0.00 28 1000.0
20260902203046 84 95 12.2 18.2 0.00 0.00 0.00 27 1000.4
20260902201518 84 124 9.6 13.9 0.00 0.00 0.00 29 1000.5
20260902200015 81 169 8.7 14.8 0.00 0.00 0.00 30 1000.7
20260902194552 81 163 9.6 13.9 0.00 0.00 0.00 30 1000.8
20260902193054 80 196 7.8 15.6 0.00 0.00 0.00 31 1001.0
20260902191544 80 142 11.3 14.8 0.00 0.00 0.00 32 1001.1
20260902190029 80 176 6.1 15.6 0.00 0.00 0.00 33 1001.2
20260902184516 79 213 7.8 13.9 0.00 0.00 0.00 34 1001.4
20260902183009 79 189 11.3 13.9 0.00 0.00 0.00 34 1001.5
20260902181550 79 196 13.9 17.4 0.00 0.00 0.00 33 1001.5
20260902180048 79 178 9.6 18.2 0.00 0.00 0.00 35 1001.8
20260902174527 78 195 13.0 18.2 0.00 0.00 0.00 35 1002.0
20260902173024 78 201 11.3 20.0 0.00 0.00 0.00 37 1002.0
20260902171503 76 198 13.0 17.4 0.00 0.00 0.00 39 1002.3
20260902170001 76 218 12.2 17.4 0.00 0.00 0.00 40 1002.3
20260902164542 74 196 7.0 11.3 0.00 0.00 0.00 42 1002.4
20260902163048 72 180 6.1 9.6 0.00 0.00 0.00 44 1002.4
20260902161518 71 182 4.3 6.1 0.00 0.00 0.00 46 1002.4
20260902160017 70 205 5.2 7.8 0.00 0.00 0.00 47 1002.5
20260902154558 69 216 6.1 7.8 0.00 0.00 0.00 48 1002.8
20260902153109 68 211 5.2 7.8 0.00 0.00 0.00 50 1002.9
20260902151543 67 202 5.2 7.8 0.00 0.00 0.00 51 1003.0
20260902150037 66 238 5.2 7.8 0.00 0.00 0.00 52 1003.1
20260902144521 64 185 6.1 7.8 0.00 0.00 0.00 55 1003.4
20260902143018 64 193 4.3 7.0 0.00 0.00 0.00 55 1003.6
20260902141502 63 205 4.3 5.2 0.00 0.00 0.00 57 1003.6
20260902140100 61 210 2.6 3.5 0.00 0.00 0.00 59 1003.7
20260902134601 59 210 1.7 3.5 0.00 0.00 0.00 60 1003.7
20260902133042 57 168 2.6 4.3 0.00 0.00 0.00 64 1003.7
20260902131541 55 168 1.7 4.3 0.00 0.00 0.00 66 1003.8
20260902130023 54 184 4.3 7.0 0.00 0.00 0.00 66 1004.0
20260902124521 56 185 7.0 11.3 0.00 0.00 0.00 63 1003.9
20260902123002 57 207 3.5 6.1 0.00 0.00 0.00 63 1003.4
20260902121502 57 306 2.6 6.1 0.00 0.00 0.00 63 1003.3
20260902120056 57 288 5.2 7.8 0.00 0.00 0.00 62 1003.4